| time (UTC) | temp F | wind direction | speed knots | gust knots | rain 1hr in | rain 24hr in | rain mn in | humidity % | barometer mb |
| 20260507120036 | 74 | 288 | 6.1 | 10.4 | 0.00 | 0.44 | 0.00 | 33 | 1015.7 |
| 20260507114532 | 74 | 72 | 1.7 | 10.4 | 0.00 | 0.44 | 0.00 | 32 | 1015.9 |
| 20260507113024 | 75 | 159 | 1.7 | 12.2 | 0.00 | 0.44 | 0.00 | 32 | 1015.9 |
| 20260507111531 | 73 | 102 | 2.6 | 7.8 | 0.00 | 0.44 | 0.00 | 34 | 1016.2 |
| 20260507110016 | 73 | 132 | 6.1 | 12.2 | 0.00 | 0.44 | 0.00 | 36 | 1016.3 |
| 20260507104520 | 72 | 103 | 6.1 | 11.3 | 0.00 | 0.44 | 0.00 | 35 | 1016.5 |
| 20260507103023 | 72 | 82 | 6.1 | 10.4 | 0.00 | 0.44 | 0.00 | 35 | 1016.6 |
| 20260507101528 | 71 | 34 | 2.6 | 10.4 | 0.00 | 0.44 | 0.00 | 35 | 1016.6 |
| 20260507094522 | 72 | 86 | 6.1 | 12.2 | 0.00 | 0.44 | 0.00 | 36 | 1017.1 |
| 20260507093025 | 71 | 112 | 0.0 | 8.7 | 0.00 | 0.44 | 0.00 | 36 | 1017.2 |
| 20260507091526 | 71 | 171 | 3.5 | 12.2 | 0.00 | 0.44 | 0.00 | 33 | 1017.2 |
| 20260507090030 | 71 | 114 | 6.1 | 9.6 | 0.00 | 0.44 | 0.00 | 35 | 1017.2 |
| 20260507083023 | 70 | 68 | 4.3 | 9.6 | 0.00 | 0.44 | 0.00 | 31 | 1017.5 |
| 20260507081538 | 70 | 68 | 4.3 | 7.8 | 0.00 | 0.44 | 0.00 | 29 | 1017.7 |
| 20260507080027 | 68 | 56 | 2.6 | 9.6 | 0.00 | 0.44 | 0.00 | 32 | 1017.8 |
| 20260507074524 | 69 | 113 | 7.0 | 12.2 | 0.00 | 0.44 | 0.00 | 30 | 1017.8 |
| 20260507073019 | 68 | 51 | 5.2 | 8.7 | 0.00 | 0.44 | 0.00 | 36 | 1017.9 |
| 20260507071522 | 67 | 40 | 6.1 | 9.6 | 0.00 | 0.44 | 0.00 | 39 | 1017.9 |
| 20260507070024 | 67 | 19 | 3.5 | 7.0 | 0.00 | 0.44 | 0.00 | 36 | 1017.9 |
| 20260507064512 | 67 | 44 | 2.6 | 7.0 | 0.00 | 0.44 | 0.00 | 43 | 1017.9 |
| 20260507061522 | 65 | 83 | 2.6 | 7.8 | 0.00 | 0.44 | 0.00 | 47 | 1017.9 |
| 20260507060026 | 64 | 106 | 4.3 | 7.8 | 0.00 | 0.44 | 0.00 | 49 | 1018.0 |
| 20260507054528 | 63 | 113 | 2.6 | 6.1 | 0.00 | 0.44 | 0.00 | 51 | 1018.0 |
| 20260507051519 | 62 | 38 | 2.6 | 6.1 | 0.00 | 0.44 | 0.00 | 51 | 1018.0 |
| 20260507044509 | 61 | 74 | 3.5 | 5.2 | 0.00 | 0.44 | 0.00 | 55 | 1018.0 |
| 20260507043011 | 60 | 85 | 2.6 | 5.2 | 0.00 | 0.44 | 0.00 | 57 | 1017.9 |
| 20260507041517 | 60 | 103 | 1.7 | 6.1 | 0.00 | 0.44 | 0.00 | 57 | 1017.8 |
| 20260507040006 | 60 | 103 | 2.6 | 5.2 | 0.00 | 0.44 | 0.00 | 55 | 1017.7 |
| 20260507033019 | 58 | 237 | 0.0 | 0.9 | 0.00 | 0.44 | 0.00 | 60 | 1017.5 |
| 20260507031527 | 56 | 237 | 0.0 | 0.9 | 0.00 | 0.44 | 0.00 | 64 | 1017.2 |
| 20260507024504 | 54 | 155 | 0.0 | 2.6 | 0.00 | 0.44 | 0.00 | 68 | 1016.9 |
| 20260507023031 | 54 | 247 | 1.7 | 2.6 | 0.00 | 0.44 | 0.00 | 68 | 1016.6 |
| 20260507014536 | 54 | 307 | 0.0 | 0.0 | 0.00 | 0.44 | 0.00 | 69 | 1016.4 |
| 20260507013008 | 54 | 307 | 0.0 | 0.0 | 0.00 | 0.44 | 0.00 | 68 | 1016.3 |
| 20260507011511 | 54 | 307 | 0.0 | 0.9 | 0.00 | 0.44 | 0.00 | 67 | 1016.4 |
| 20260507010010 | 54 | 307 | 0.0 | 2.6 | 0.00 | 0.44 | 0.00 | 67 | 1016.4 |
| 20260507004512 | 54 | 308 | 1.7 | 3.5 | 0.00 | 0.44 | 0.00 | 67 | 1016.3 |
| 20260507003008 | 54 | 306 | 1.7 | 3.5 | 0.00 | 0.44 | 0.00 | 66 | 1016.2 |
| 20260507001508 | 55 | 290 | 1.7 | 2.6 | 0.00 | 0.44 | 0.00 | 65 | 1016.0 |
| 20260507000008 | 56 | 309 | 0.0 | 1.7 | 0.00 | 0.44 | 0.00 | 65 | 1015.9 |
| 20260506234507 | 56 | 306 | 0.0 | 1.7 | 0.00 | 0.44 | 0.00 | 64 | 1015.9 |
| 20260506233008 | 56 | 309 | 0.9 | 2.6 | 0.00 | 0.44 | 0.00 | 64 | 1015.9 |
| 20260506231510 | 56 | 319 | 0.0 | 1.7 | 0.00 | 0.44 | 0.00 | 64 | 1015.9 |
| 20260506230009 | 58 | 319 | 0.0 | 1.7 | 0.00 | 0.44 | 0.00 | 61 | 1016.0 |
| 20260506224512 | 58 | 328 | 0.9 | 2.6 | 0.00 | 0.44 | 0.00 | 59 | 1015.9 |
| 20260506223009 | 58 | 339 | 1.7 | 3.5 | 0.00 | 0.44 | 0.00 | 59 | 1015.9 |
| 20260506221510 | 58 | 333 | 1.7 | 3.5 | 0.00 | 0.44 | 0.00 | 59 | 1015.9 |
| 20260506213011 | 58 | 302 | 2.6 | 3.5 | 0.00 | 0.44 | 0.00 | 60 | 1016.0 |
| 20260506211511 | 58 | 296 | 1.7 | 3.5 | 0.00 | 0.44 | 0.00 | 61 | 1016.0 |
| 20260506210015 | 59 | 314 | 1.7 | 4.3 | 0.00 | 0.44 | 0.00 | 60 | 1015.7 |
| 20260506201517 | 60 | 294 | 0.9 | 2.6 | 0.00 | 0.44 | 0.44 | 57 | 1015.7 |
| 20260506194514 | 60 | 290 | 1.7 | 4.3 | 0.00 | 0.44 | 0.44 | 57 | 1015.7 |
| 20260506193014 | 61 | 292 | 2.6 | 7.0 | 0.00 | 0.44 | 0.44 | 56 | 1015.7 |
| 20260506190019 | 63 | 285 | 1.7 | 4.3 | 0.00 | 0.44 | 0.44 | 49 | 1015.5 |
| 20260506183008 | 64 | 283 | 1.7 | 7.0 | 0.00 | 0.44 | 0.44 | 43 | 1015.5 |
| 20260506181516 | 65 | 300 | 0.9 | 4.3 | 0.00 | 0.44 | 0.44 | 41 | 1015.4 |
| 20260506180022 | 66 | 333 | 1.7 | 3.5 | 0.00 | 0.44 | 0.44 | 39 | 1015.2 |
| 20260506174520 | 66 | 5 | 0.9 | 2.6 | 0.00 | 0.44 | 0.44 | 39 | 1015.1 |
| 20260506173011 | 66 | 296 | 0.0 | 3.5 | 0.00 | 0.44 | 0.44 | 38 | 1015.1 |
| 20260506171512 | 66 | 338 | 2.6 | 4.3 | 0.00 | 0.44 | 0.44 | 37 | 1015.0 |
| 20260506170021 | 67 | 304 | 0.9 | 3.5 | 0.00 | 0.44 | 0.44 | 35 | 1014.8 |
| 20260506164522 | 68 | 246 | 1.7 | 4.3 | 0.00 | 0.44 | 0.44 | 34 | 1014.7 |
| 20260506163041 | 68 | 259 | 0.9 | 4.3 | 0.00 | 0.44 | 0.44 | 33 | 1014.6 |
| 20260506161508 | 69 | 304 | 0.0 | 4.3 | 0.00 | 0.44 | 0.44 | 33 | 1014.3 |
| 20260506160019 | 69 | 234 | 1.7 | 3.5 | 0.44 | 0.44 | 0.44 | 32 | 1014.4 |
| 20260506154522 | 70 | 250 | 3.5 | 6.1 | 0.44 | 0.44 | 0.44 | 29 | 1014.3 |
| 20260506153024 | 70 | 113 | 4.3 | 8.7 | 0.44 | 0.44 | 0.44 | 28 | 1014.2 |
| 20260506151509 | 71 | 133 | 4.3 | 8.7 | 0.44 | 0.44 | 0.44 | 27 | 1014.1 |
| 20260506150026 | 71 | 120 | 4.3 | 12.2 | 0.00 | 0.00 | 0.00 | 26 | 1014.1 |
| 20260506141510 | 73 | 127 | 6.1 | 11.3 | 0.00 | 0.00 | 0.00 | 25 | 1014.3 |
| 20260506133022 | 73 | 114 | 7.8 | 12.2 | 0.00 | 0.00 | 0.00 | 23 | 1014.6 |
| 20260506131522 | 74 | 141 | 7.8 | 13.0 | 0.00 | 0.00 | 0.00 | 25 | 1014.7 |
| 20260506130011 | 73 | 96 | 5.2 | 11.3 | 0.00 | 0.00 | 0.00 | 26 | 1014.8 |
| 20260506123022 | 73 | 171 | 7.8 | 13.0 | 0.00 | 0.00 | 0.00 | 25 | 1015.1 |
| 20260506121519 | 74 | 244 | 6.1 | 10.4 | 0.00 | 0.00 | 0.00 | 25 | 1014.9 |